GW2491 Weather Reports


Display with metric or nautical units.
time (UTC)temp
F
wind
direction
speed
MPH
gust
MPH
rain 1hr
in
rain 24hr
in
rain mn
in
humidity
%
barometer
mb
20260906111602 68 0 0.0 0.0 0.00 0.48 0.00 93 1011.6
20260906110100 69 0 0.0 0.0 0.00 0.48 0.00 93 1011.5
20260906104607 69 0 0.0 0.0 0.00 0.48 0.00 93 1011.3
20260906103104 69 0 0.0 0.0 0.00 0.48 0.00 93 1011.2
20260906101607 69 0 0.0 0.0 0.00 0.48 0.00 93 1011.0
20260906100105 69 0 0.0 0.0 0.00 0.48 0.00 93 1010.7
20260906094615 69 0 0.0 0.0 0.00 0.48 0.00 93 1010.7
20260906093131 69 0 0.0 0.0 0.00 0.48 0.00 93 1010.4
20260906091613 69 0 0.0 0.0 0.00 0.48 0.00 93 1010.4
20260906090105 69 0 0.0 0.0 0.00 0.48 0.00 93 1010.4
20260906084601 69 0 0.0 0.0 0.00 0.48 0.00 93 1010.5
20260906083101 69 0 0.0 0.0 0.00 0.48 0.00 93 1010.5
20260906081609 69 0 0.0 0.0 0.00 0.48 0.00 93 1010.6
20260906080110 70 0 0.0 0.0 0.00 0.48 0.00 93 1010.7
20260906074604 70 0 0.0 0.0 0.00 0.48 0.00 93 1010.9
20260906073101 70 0 0.0 0.0 0.00 0.48 0.00 93 1010.9
20260906071654 70 0 0.0 0.0 0.00 0.48 0.00 93 1011.0
20260906070104 70 0 0.0 0.0 0.00 0.48 0.00 93 1011.1
20260906064603 70 0 0.0 0.0 0.00 0.48 0.00 93 1011.3
20260906063105 70 0 0.0 0.0 0.00 0.48 0.00 93 1011.3
20260906061601 70 0 0.0 0.0 0.00 0.48 0.00 93 1011.3
20260906060105 71 0 0.0 0.0 0.00 0.48 0.00 93 1011.2
20260906054611 71 0 0.0 0.0 0.00 0.48 0.00 92 1011.2
20260906053101 71 0 0.0 0.0 0.00 0.48 0.00 92 1011.1
20260906051608 71 0 0.0 0.0 0.00 0.48 0.00 92 1011.3
20260906050111 71 0 0.0 0.0 0.00 0.48 0.00 92 1011.6
20260906044608 71 0 0.0 0.0 0.00 0.48 0.00 92 1011.9
20260906043104 71 0 0.0 0.0 0.00 0.48 0.00 92 1012.2
20260906041601 71 0 0.0 0.0 0.00 0.48 0.00 92 1012.2
20260906040107 71 0 0.0 0.0 0.00 0.48 0.00 92 1012.0
20260906034605 72 0 0.0 0.0 0.00 0.48 0.48 92 1012.2
20260906033100 72 0 0.0 0.0 0.00 0.48 0.48 92 1012.3
20260906031608 72 0 0.0 0.0 0.00 0.48 0.48 92 1012.4
20260906030104 72 0 0.0 2.0 0.01 0.48 0.48 92 1012.3
20260906024602 73 0 0.0 0.0 0.01 0.48 0.48 92 1012.4
20260906023104 73 0 0.0 0.0 0.01 0.48 0.48 92 1012.0
20260906021606 73 0 0.0 0.0 0.01 0.48 0.48 92 1011.6
20260906020106 73 0 0.0 0.0 0.00 0.47 0.47 92 1011.8
20260906014648 73 0 0.0 0.0 0.00 0.47 0.47 92 1012.1
20260906013105 73 0 0.0 0.0 0.05 0.47 0.47 92 1011.7
20260906011606 73 0 0.0 0.0 0.06 0.47 0.47 92 1011.8
20260906010105 73 0 0.0 0.0 0.07 0.47 0.47 92 1011.6
20260906004615 73 0 0.0 1.0 0.07 0.47 0.47 92 1011.1
20260906003115 73 0 0.0 3.0 0.02 0.42 0.42 91 1011.0
20260906001605 73 0 0.0 0.0 0.01 0.41 0.41 91 1011.6
20260906000104 73 0 0.0 3.0 0.00 0.40 0.40 90 1011.7
20260905234612 73 0 0.0 0.0 0.01 0.40 0.40 90 1010.5
20260905233103 73 0 0.0 0.0 0.02 0.40 0.40 89 1010.4
20260905231603 73 0 0.0 0.0 0.36 0.40 0.40 88 1011.1
20260905230110 73 0 0.0 0.0 0.40 0.40 0.40 86 1011.8
20260905224613 74 32 0.0 0.0 0.39 0.39 0.39 84 1011.3
20260905223104 76 0 0.0 4.0 0.38 0.38 0.38 79 1011.4
20260905221612 84 0 0.0 11.0 0.04 0.04 0.04 66 1011.3
20260905220108 90 0 0.0 0.0 0.00 0.00 0.00 69 1010.1
20260905214610 91 0 0.0 1.0 0.00 0.00 0.00 70 1008.7
20260905213106 91 0 0.0 1.0 0.00 0.00 0.00 68 1009.1
20260905211605 93 0 0.0 1.0 0.00 0.00 0.00 66 1009.4
20260905204603 93 0 0.0 0.0 0.00 0.00 0.00 62 1009.4
20260905203105 95 0 0.0 0.0 0.00 0.00 0.00 62 1009.2
20260905201623 96 0 0.0 1.0 0.00 0.00 0.00 61 1009.3
20260905200104 96 0 0.0 1.0 0.00 0.00 0.00 57 1009.6
20260905194603 97 0 0.0 1.0 0.00 0.00 0.00 54 1009.6
20260905193114 97 268 0.0 1.0 0.00 0.00 0.00 55 1009.8
20260905191601 97 0 0.0 4.0 0.00 0.00 0.00 56 1010.0
20260905190108 98 0 0.0 1.0 0.00 0.00 0.00 56 1010.4
20260905184606 97 0 0.0 5.0 0.00 0.00 0.00 58 1010.8
20260905183107 96 0 0.0 1.0 0.00 0.00 0.00 58 1010.9
20260905181611 96 0 0.0 3.0 0.00 0.00 0.00 58 1011.1
20260905180104 95 0 0.0 0.0 0.00 0.00 0.00 61 1011.4
20260905174628 96 0 0.0 1.0 0.00 0.00 0.00 56 1011.8
20260905173105 95 0 0.0 3.0 0.00 0.00 0.00 58 1012.1
20260905171604 94 0 0.0 5.0 0.00 0.00 0.00 59 1012.0
20260905170107 95 0 0.0 8.0 0.00 0.00 0.00 60 1012.2
20260905164605 93 0 0.0 1.0 0.00 0.00 0.00 64 1012.6
20260905163108 93 0 0.0 5.0 0.00 0.00 0.00 69 1012.9
20260905161606 93 0 0.0 1.0 0.00 0.00 0.00 67 1013.0
20260905160109 91 0 0.0 1.0 0.00 0.00 0.00 66 1013.1
20260905154619 91 0 0.0 3.0 0.00 0.00 0.00 67 1013.3
20260905153104 90 0 0.0 1.0 0.00 0.00 0.00 70 1013.5
20260905151607 89 0 0.0 4.0 0.00 0.00 0.00 72 1013.5
20260905150106 87 0 0.0 2.0 0.00 0.00 0.00 75 1013.7
20260905144609 86 0 0.0 3.0 0.00 0.00 0.00 77 1013.8
20260905143105 85 0 0.0 3.0 0.00 0.00 0.00 79 1013.8
20260905141606 84 0 0.0 4.0 0.00 0.00 0.00 81 1013.7
20260905140109 81 9 0.0 5.0 0.00 0.00 0.00 88 1013.8
20260905134604 80 0 0.0 4.0 0.00 0.00 0.00 88 1013.9
20260905133103 79 0 0.0 1.0 0.00 0.00 0.00 91 1014.0
20260905131609 78 0 0.0 1.0 0.00 0.00 0.00 92 1014.1
20260905130104 78 0 0.0 1.0 0.00 0.00 0.00 93 1014.2
20260905124603 77 0 0.0 4.0 0.00 0.00 0.00 93 1014.2
20260905123102 77 0 0.0 0.0 0.00 0.00 0.00 93 1014.1
20260905121605 76 0 0.0 1.0 0.00 0.00 0.00 93 1014.0
20260905120105 76 0 0.0 0.0 0.00 0.00 0.00 94 1013.8
20260905114606 76 0 0.0 1.0 0.00 0.00 0.00 93 1013.7
20260905113100 76 0 0.0 0.0 0.00 0.00 0.00 93 1013.7